DLH400 EDDM-KJFK

Flight info

Callsign DLH400
Flight time N/A
Altitude 36000
Route GIVMI6Q/08L GIVMI Y101 INBED DCT REKDI DCT LOHRE DCT ADKUV DCT LENDO DCT SOGRI DCT DENUT L610 KOPUL Q60 OKSAW DCT TEWXI DCT VATRY DCT SUTEX DCT RIKUL DCT DOGAL/M084F380 NATA ALLRY/N0475F380 N468A TUSKY DCT PLYMM PARCH4
Aircraft A388/J-SADE2E3GHIJ3J4J5LM1OP2RWXYZ/LB1D1

Departure

Time 2026-05-01 14:04
Airport Munich Airport (EDDM)

Arrival

Time N/A
Airport John F. Kennedy International Airport (KJFK)
Time Latitude Longitude Altitude Speed Heading
2026-05-01 13:28 48.35244 11.80026 1479 ft 0 kts 263°
2026-05-01 13:48 48.35245 11.80045 1475 ft 4 kts 255°
2026-05-01 13:48 48.35256 11.80080 1475 ft 4 kts 233°
2026-05-01 13:49 48.35266 11.80108 1475 ft 2 kts 263°
2026-05-01 13:49 48.35271 11.80144 1475 ft 4 kts 242°
2026-05-01 13:49 48.35287 11.80170 1475 ft 4 kts 188°
2026-05-01 13:49 48.35312 11.80168 1475 ft 4 kts 173°
2026-05-01 13:50 48.35333 11.80164 1475 ft 0 kts 173°
2026-05-01 13:53 48.35267 11.80176 1475 ft 8 kts 173°
2026-05-01 13:53 48.35207 11.80188 1487 ft 9 kts 173°
2026-05-01 13:54 48.35150 11.80188 1480 ft 4 kts 221°
2026-05-01 13:54 48.35136 11.80133 1485 ft 8 kts 259°
2026-05-01 13:54 48.35125 11.80025 1476 ft 14 kts 263°
2026-05-01 13:54 48.35112 11.79850 1476 ft 19 kts 263°
2026-05-01 13:55 48.35095 11.79636 1478 ft 18 kts 263°
2026-05-01 13:55 48.35105 11.79518 1479 ft 9 kts 330°
2026-05-01 13:55 48.35175 11.79500 1483 ft 12 kts 355°
2026-05-01 13:55 48.35269 11.79483 1485 ft 14 kts 353°
2026-05-01 13:56 48.35367 11.79467 1479 ft 14 kts 354°
2026-05-01 13:56 48.35464 11.79452 1477 ft 14 kts 354°
2026-05-01 13:56 48.35569 11.79433 1478 ft 16 kts 353°
2026-05-01 13:56 48.35683 11.79412 1478 ft 17 kts 353°
2026-05-01 13:57 48.35801 11.79391 1480 ft 17 kts 353°
2026-05-01 13:57 48.35915 11.79363 1475 ft 16 kts 333°
2026-05-01 13:57 48.36000 11.79329 1483 ft 11 kts 354°
2026-05-01 13:57 48.36012 11.79328 1483 ft 0 kts 354°
2026-05-01 13:58 48.36019 11.79326 1481 ft 3 kts 354°
2026-05-01 13:58 48.36053 11.79321 1483 ft 7 kts 354°
2026-05-01 13:58 48.36092 11.79298 1478 ft 5 kts 308°
2026-05-01 13:58 48.36097 11.79287 1479 ft 3 kts 296°
2026-05-01 13:59 48.36102 11.79244 1478 ft 6 kts 261°
2026-05-01 13:59 48.36088 11.79158 1478 ft 10 kts 255°
2026-05-01 13:59 48.36070 11.79036 1482 ft 14 kts 261°
2026-05-01 13:59 48.36060 11.78874 1480 ft 17 kts 265°
2026-05-01 14:00 48.36043 11.78681 1490 ft 20 kts 263°
2026-05-01 14:00 48.36026 11.78460 1482 ft 23 kts 263°
2026-05-01 14:00 48.36008 11.78216 1487 ft 24 kts 263°
2026-05-01 14:00 48.35988 11.77958 1478 ft 25 kts 263°
2026-05-01 14:01 48.35968 11.77697 1490 ft 25 kts 263°
2026-05-01 14:01 48.35948 11.77442 1476 ft 24 kts 263°
2026-05-01 14:01 48.35928 11.77180 1483 ft 25 kts 263°
2026-05-01 14:01 48.35912 11.76938 1490 ft 21 kts 279°
2026-05-01 14:02 48.35998 11.76823 1478 ft 17 kts 350°
2026-05-01 14:02 48.36098 11.76805 1478 ft 12 kts 354°
2026-05-01 14:02 48.36182 11.76791 1487 ft 13 kts 354°
2026-05-01 14:02 48.36263 11.76782 1478 ft 8 kts 19°
2026-05-01 14:03 48.36285 11.76820 1478 ft 4 kts 82°
2026-05-01 14:03 48.36286 11.76863 1486 ft 4 kts 85°
2026-05-01 14:03 48.36289 11.76915 1479 ft 6 kts 84°
2026-05-01 14:03 48.36313 11.77224 1481 ft 65 kts 83°
2026-05-01 14:04 48.36390 11.78233 1481 ft 125 kts 83°
2026-05-01 14:04 48.36502 11.79726 1530 ft 156 kts 84°
2026-05-01 14:04 48.36633 11.81257 2122 ft 147 kts 83°
2026-05-01 14:04 48.36724 11.82316 2379 ft 155 kts 81°
2026-05-01 14:05 48.36937 11.84471 2960 ft 159 kts 81°
2026-05-01 14:05 48.37137 11.86152 3328 ft 168 kts 81°
2026-05-01 14:05 48.37318 11.87940 3657 ft 177 kts 82°
2026-05-01 14:05 48.37507 11.89807 3952 ft 188 kts 73°
2026-05-01 14:06 48.38314 11.91477 4079 ft 214 kts 37°
2026-05-01 14:06 48.39785 11.92222 4379 ft 243 kts
2026-05-01 14:06 48.41560 11.91675 4684 ft 274 kts 335°
2026-05-01 14:06 48.43051 11.89808 5280 ft 287 kts 306°
2026-05-01 14:07 48.43912 11.87083 6067 ft 288 kts 289°
2026-05-01 14:07 48.44530 11.84213 6771 ft 295 kts 290°
2026-05-01 14:07 48.45346 11.81438 7729 ft 285 kts 298°
2026-05-01 14:08 48.47601 11.76398 9122 ft 294 kts 311°
2026-05-01 14:08 48.48918 11.74005 9792 ft 298 kts 314°
2026-05-01 14:08 48.50279 11.71623 10463 ft 302 kts 314°
2026-05-01 14:08 48.51655 11.69222 11175 ft 303 kts 314°
2026-05-01 14:09 48.53037 11.66800 11807 ft 306 kts 314°
2026-05-01 14:09 48.54426 11.64358 12483 ft 307 kts 313°
2026-05-01 14:09 48.55825 11.61890 13082 ft 311 kts 313°
2026-05-01 14:09 48.57235 11.59394 13720 ft 314 kts 314°
2026-05-01 14:10 48.58687 11.56825 13991 ft 330 kts 313°
2026-05-01 14:10 48.60213 11.54125 14159 ft 346 kts 313°
2026-05-01 14:10 48.61809 11.51293 14323 ft 362 kts 313°
2026-05-01 14:10 48.63454 11.48369 14751 ft 367 kts 313°
2026-05-01 14:11 48.65112 11.45414 15289 ft 370 kts 313°
2026-05-01 14:11 48.68434 11.39484 16331 ft 375 kts 313°
2026-05-01 14:11 48.70240 11.36636 16838 ft 375 kts 321°
2026-05-01 14:12 48.72313 11.34221 17325 ft 376 kts 330°
2026-05-01 14:12 48.74514 11.32056 17829 ft 379 kts 329°
2026-05-01 14:12 48.76721 11.29833 18275 ft 383 kts 329°
2026-05-01 14:12 48.78944 11.27572 18774 ft 385 kts 329°
2026-05-01 14:13 48.81167 11.25306 19229 ft 387 kts 329°
2026-05-01 14:13 48.82649 11.23802 19528 ft 387 kts 330°
2026-05-01 14:13 48.85835 11.21284 20120 ft 386 kts 341°
2026-05-01 14:13 48.88377 11.19964 20549 ft 386 kts 345°
2026-05-01 14:14 48.90942 11.18691 20986 ft 388 kts 344°
2026-05-01 14:14 48.93478 11.17398 21429 ft 389 kts 344°
2026-05-01 14:14 48.96053 11.16080 21849 ft 391 kts 344°
2026-05-01 14:14 48.98642 11.14755 22255 ft 393 kts 344°
2026-05-01 14:15 49.01246 11.13426 22639 ft 396 kts 344°
2026-05-01 14:15 49.03867 11.12091 23077 ft 398 kts 344°
2026-05-01 14:15 49.06499 11.10748 23487 ft 400 kts 344°
2026-05-01 14:15 49.09148 11.09395 23895 ft 402 kts 344°
2026-05-01 14:16 49.11804 11.08036 24217 ft 404 kts 343°
2026-05-01 14:16 49.14473 11.06672 24563 ft 406 kts 343°
2026-05-01 14:16 49.17152 11.05305 24918 ft 407 kts 343°
2026-05-01 14:16 49.19849 11.03927 25281 ft 409 kts 343°
2026-05-01 14:17 49.22554 11.02538 25616 ft 411 kts 343°
2026-05-01 14:17 49.25248 11.01150 25894 ft 415 kts 343°
2026-05-01 14:17 49.27990 10.99734 26294 ft 416 kts 343°
2026-05-01 14:17 49.30739 10.98314 26671 ft 418 kts 343°
2026-05-01 14:18 49.33504 10.96885 27064 ft 420 kts 343°
2026-05-01 14:18 49.36248 10.95310 27431 ft 424 kts 336°
2026-05-01 14:18 49.38786 10.92965 27838 ft 429 kts 324°
2026-05-01 14:18 49.40328 10.90952 28121 ft 432 kts 317°
2026-05-01 14:19 49.42923 10.86264 28652 ft 437 kts 311°
2026-05-01 14:19 49.44842 10.82612 29065 ft 440 kts 311°
2026-05-01 14:19 49.46776 10.78964 29483 ft 442 kts 311°
2026-05-01 14:19 49.48725 10.75284 29844 ft 445 kts 310°
2026-05-01 14:20 49.50680 10.71576 30283 ft 447 kts 310°
2026-05-01 14:20 49.54610 10.64094 30997 ft 452 kts 310°
2026-05-01 14:20 49.56590 10.60315 31405 ft 453 kts 311°
2026-05-01 14:21 49.58567 10.56538 31772 ft 455 kts 310°
2026-05-01 14:21 49.60562 10.52717 32079 ft 458 kts 310°
2026-05-01 14:21 49.62561 10.48885 32482 ft 459 kts 310°
2026-05-01 14:22 49.66489 10.41029 33099 ft 465 kts 305°
2026-05-01 14:22 49.68270 10.36943 33579 ft 464 kts 305°
2026-05-01 14:22 49.70125 10.32746 33802 ft 469 kts 306°
2026-05-01 14:22 49.71964 10.28589 34260 ft 469 kts 306°
2026-05-01 14:23 49.73788 10.24464 34457 ft 473 kts 306°
2026-05-01 14:23 49.75643 10.20254 34826 ft 473 kts 306°
2026-05-01 14:23 49.77503 10.16024 35033 ft 477 kts 305°
2026-05-01 14:23 49.79361 10.11787 35492 ft 475 kts 305°
2026-05-01 14:24 49.81214 10.07553 35841 ft 476 kts 305°
2026-05-01 14:24 49.83074 10.03298 36177 ft 476 kts 305°
2026-05-01 14:24 49.84933 9.99039 36343 ft 481 kts 305°
2026-05-01 14:24 49.86802 9.94749 36332 ft 476 kts 304°
2026-05-01 14:25 49.90505 9.86226 36333 ft 477 kts 305°
2026-05-01 14:25 49.94209 9.77677 36330 ft 478 kts 304°
2026-05-01 14:26 49.99734 9.64875 36328 ft 475 kts 304°
2026-05-01 14:27 50.03387 9.56378 36330 ft 475 kts 304°
2026-05-01 14:27 50.06586 9.47428 36322 ft 473 kts 294°
2026-05-01 14:28 50.09490 9.32690 36321 ft 475 kts 286°
2026-05-01 14:28 50.10977 9.24350 36319 ft 478 kts 287°
2026-05-01 14:29 50.12718 9.14470 36315 ft 473 kts 286°
2026-05-01 14:30 50.16138 8.94779 36317 ft 473 kts 285°
2026-05-01 14:31 50.18705 8.79831 36301 ft 472 kts 286°
2026-05-01 14:31 50.20402 8.69896 36302 ft 475 kts 285°
2026-05-01 14:32 50.22099 8.59890 36299 ft 474 kts 285°
2026-05-01 14:32 50.23776 8.49945 36307 ft 474 kts 285°
2026-05-01 14:33 50.25441 8.40022 36311 ft 475 kts 285°
2026-05-01 14:33 50.27112 8.30004 36306 ft 475 kts 285°
2026-05-01 14:34 50.28763 8.20040 36316 ft 470 kts 285°
2026-05-01 14:34 50.30403 8.10093 36304 ft 475 kts 284°
2026-05-01 14:35 50.32043 8.00081 36304 ft 473 kts 285°
2026-05-01 14:35 50.33661 7.90143 36308 ft 472 kts 285°
2026-05-01 14:36 50.35280 7.80143 36305 ft 475 kts 284°
2026-05-01 14:36 50.36900 7.70082 36304 ft 475 kts 284°
2026-05-01 14:37 50.38502 7.60062 36302 ft 474 kts 284°
2026-05-01 14:37 50.40098 7.50029 36302 ft 475 kts 284°
2026-05-01 14:38 50.41691 7.39952 36333 ft 476 kts 284°
2026-05-01 14:38 50.43279 7.29839 36340 ft 478 kts 283°
2026-05-01 14:39 50.44861 7.19708 36305 ft 479 kts 283°
2026-05-01 14:39 50.46434 7.09562 36331 ft 478 kts 283°
2026-05-01 14:40 50.47996 6.99430 36324 ft 476 kts 283°
2026-05-01 14:40 50.49546 6.89317 36274 ft 476 kts 283°
2026-05-01 14:41 50.51192 6.79325 36280 ft 475 kts 289°
2026-05-01 14:41 50.53379 6.69556 36232 ft 474 kts 289°
2026-05-01 14:42 50.55559 6.59775 36260 ft 473 kts 288°
2026-05-01 14:42 50.57713 6.49977 36211 ft 474 kts 288°
2026-05-01 14:43 50.59860 6.40156 36223 ft 475 kts 288°
2026-05-01 14:43 50.62003 6.30305 36220 ft 476 kts 288°
2026-05-01 14:44 50.63675 6.20251 36208 ft 476 kts 282°
2026-05-01 14:44 50.65989 6.05024 36241 ft 477 kts 282°
2026-05-01 14:45 50.68286 5.89720 36217 ft 479 kts 282°
2026-05-01 14:46 50.69808 5.79479 36230 ft 480 kts 282°
2026-05-01 14:46 50.72072 5.64116 36252 ft 480 kts 282°
2026-05-01 14:47 50.73578 5.53815 36233 ft 482 kts 281°
2026-05-01 14:48 50.75822 5.38326 36248 ft 482 kts 282°
2026-05-01 14:48 50.78046 5.22826 36244 ft 482 kts 282°
2026-05-01 14:49 50.81390 5.02386 36219 ft 484 kts 292°
2026-05-01 14:50 50.87409 4.83223 36222 ft 486 kts 295°
2026-05-01 14:51 50.91937 4.68819 36236 ft 487 kts 295°
2026-05-01 14:52 50.96459 4.54369 36233 ft 489 kts 295°
2026-05-01 14:53 51.00969 4.39876 36241 ft 490 kts 295°
2026-05-01 14:53 51.03986 4.30132 36240 ft 491 kts 295°
2026-05-01 14:54 51.06990 4.20392 36241 ft 491 kts 294°
2026-05-01 14:54 51.09989 4.10627 36230 ft 491 kts 294°
2026-05-01 14:55 51.12980 4.00854 36222 ft 491 kts 294°
2026-05-01 14:55 51.15960 3.91074 36208 ft 490 kts 294°
2026-05-01 14:56 51.18908 3.81359 36203 ft 490 kts 294°
2026-05-01 14:56 51.21868 3.71565 36189 ft 490 kts 294°
2026-05-01 14:57 51.24183 3.61391 36182 ft 487 kts 281°
2026-05-01 14:57 51.26287 3.45533 36189 ft 487 kts 280°
2026-05-01 14:58 51.27693 3.34930 36196 ft 488 kts 279°
2026-05-01 14:58 51.29052 3.24356 36201 ft 488 kts 279°
2026-05-01 14:59 51.30382 3.13908 36218 ft 488 kts 279°
2026-05-01 14:59 51.31694 3.03540 36217 ft 488 kts 279°
2026-05-01 15:00 51.33697 2.87569 36202 ft 487 kts 279°
2026-05-01 15:01 51.34978 2.77254 36196 ft 487 kts 279°
2026-05-01 15:01 51.35933 2.69531 36196 ft 487 kts 279°
2026-05-01 15:02 51.36660 2.63633 36196 ft 487 kts 279°
2026-05-01 15:02 51.37265 2.58713 36199 ft 487 kts 278°
2026-05-01 15:03 51.37803 2.54321 36200 ft 486 kts 278°
2026-05-01 15:03 51.38390 2.49512 36198 ft 486 kts 278°
2026-05-01 15:04 51.39012 2.44397 36196 ft 486 kts 278°
2026-05-01 15:04 51.39996 2.36259 36187 ft 487 kts 278°
2026-05-01 15:05 51.40669 2.30661 36191 ft 487 kts 278°
2026-05-01 15:05 51.41280 2.25562 36191 ft 487 kts 278°
2026-05-01 15:06 51.42225 2.17782 36188 ft 487 kts 278°
2026-05-01 15:06 51.43408 2.08117 36186 ft 487 kts 278°
2026-05-01 15:07 51.44610 1.98187 36194 ft 487 kts 278°
2026-05-01 15:07 51.45871 1.87504 36192 ft 487 kts 278°
2026-05-01 15:08 51.47111 1.76804 36192 ft 487 kts 277°
2026-05-01 15:08 51.48338 1.66117 36191 ft 487 kts 277°
2026-05-01 15:09 51.49559 1.55411 36187 ft 487 kts 277°
2026-05-01 15:09 51.50764 1.44767 36180 ft 487 kts 277°
2026-05-01 15:10 51.51966 1.34055 36183 ft 488 kts 277°
2026-05-01 15:10 51.53750 1.17978 36182 ft 488 kts 277°
2026-05-01 15:11 51.54974 1.01810 36180 ft 486 kts 273°
2026-05-01 15:12 51.55670 0.90991 36158 ft 487 kts 273°
2026-05-01 15:12 51.56687 0.74753 36158 ft 487 kts 272°
2026-05-01 15:14 51.58320 0.47752 36179 ft 486 kts 272°
2026-05-01 15:14 51.59271 0.31540 36154 ft 485 kts 272°
2026-05-01 15:15 51.60501 0.09943 36152 ft 485 kts 272°
2026-05-01 15:16 51.61594 -0.09843 36136 ft 485 kts 272°
2026-05-01 15:18 51.63231 -0.36805 36122 ft 484 kts 273°
2026-05-01 15:19 51.64509 -0.58277 36131 ft 484 kts 272°
2026-05-01 15:19 51.65441 -0.74429 36128 ft 484 kts 272°
2026-05-01 15:20 51.66354 -0.90629 36125 ft 485 kts 272°
2026-05-01 15:21 51.66950 -1.01447 36136 ft 485 kts 272°
2026-05-01 15:21 51.67537 -1.12261 36140 ft 484 kts 272°
2026-05-01 15:22 51.68397 -1.28481 36130 ft 484 kts 272°
2026-05-01 15:22 51.68958 -1.39274 36131 ft 484 kts 272°
2026-05-01 15:23 51.69508 -1.50086 36125 ft 483 kts 272°
2026-05-01 15:23 51.70056 -1.60882 36125 ft 483 kts 274°
2026-05-01 15:24 51.71560 -1.71485 36141 ft 488 kts 288°
2026-05-01 15:24 51.74417 -1.81385 36143 ft 491 kts 294°
2026-05-01 15:25 51.77488 -1.91309 36146 ft 491 kts 294°
2026-05-01 15:25 51.80507 -2.01139 36156 ft 491 kts 293°
2026-05-01 15:26 51.82999 -2.11372 36155 ft 489 kts 287°
2026-05-01 15:26 51.85383 -2.21665 36158 ft 489 kts 288°
2026-05-01 15:27 51.87767 -2.31968 36156 ft 489 kts 287°
2026-05-01 15:28 51.91315 -2.47458 36163 ft 489 kts 287°
2026-05-01 15:28 51.93667 -2.57801 36159 ft 489 kts 287°
2026-05-01 15:29 51.97178 -2.73334 36154 ft 489 kts 287°
2026-05-01 15:30 52.01809 -2.93998 36154 ft 489 kts 286°
2026-05-01 15:31 52.08725 -3.25253 36166 ft 491 kts 285°
2026-05-01 15:32 52.13299 -3.46179 36185 ft 491 kts 285°
2026-05-01 15:34 52.20118 -3.77778 36179 ft 494 kts 285°